Laramie, WY

11:33 AM MDT on August 19, 2017 (GMT -0600)
Laramie Regional

Weather History for KLAR - October, 2013

Change the Weather History Date:

Monday, October 21, 2013

  Actual Average Record
Temperature  
Mean Temperature 36 °F 40 °F  
Max Temperature 49 °F 54 °F 74 °F (2003)
Min Temperature 22 °F 27 °F 9 °F (2007)
Degree Days  
Heating Degree Days 29 25  
Month to date heating degree days 549 448  
Since 1 July heating degree days 873 973  
Cooling Degree Days 0 0  
Month to date cooling degree days 0 0  
Year to date cooling degree days 162 67  
Moisture  
Dew Point 24 °F    
Average Humidity 66    
Maximum Humidity 92    
Minimum Humidity 39    
Precipitation  
Precipitation 0.00 in 0.03 in 0.74 in (1972)
Month to date precipitation 1.14 0.58  
Year to date precipitation 10.52 9.84  
Sea Level Pressure  
Sea Level Pressure 30.14 in    
Wind  
Wind Speed 13 mph (West)    
Max Wind Speed 26 mph    
Max Gust Speed 33 mph    
Visibility 10 miles    
Events      
T = Trace of Precipitation, MM = Missing Value Source: NWS Daily Summary

Daily Weather History Graph

Daily Weather History Graph

Search for Another Location

Airport or City:

Trip Planner

Search our weather history database for the weather conditions in past years. The results will help you decide how hot, cold, wet, or windy it might be!

Date:

Astronomy

Oct. 21, 2013 Rise Set
Actual Time 7:21 AM MDT 6:12 PM MDT
Civil Twilight 6:53 AM MDT 6:40 PM MDT
Nautical Twilight 6:21 AM MDT 7:12 PM MDT
Astronomical Twilight 5:49 AM MDT 7:44 PM MDT
Moon 8:05 PM MDT (10/21) 10:00 AM MDT (10/21)
Length of Visible Light 11h 46m
Length of Day
10h 50m
Waning Gibbous, 92% of the Moon is Illuminated
Oct 21
Waning Gibbous
Oct 26
Last Quarter
Nov 3
New
Nov 9
First Quarter
Nov 17
Full

Hourly Weather History & Observations

Time (MDT) Temp. Windchill Dew Point Humidity Pressure Visibility Wind Dir Wind Speed Gust Speed Precip Events Conditions
12:53 AM 21.9 °F 13.4 °F 19.9 °F 92% 30.18 in 10.0 mi SSW 6.9 mph - N/A   Clear
1:53 AM 24.1 °F 16.0 °F 19.9 °F 84% 30.15 in 10.0 mi West 6.9 mph - N/A   Clear
2:53 AM 21.9 °F 13.4 °F 19.0 °F 89% 30.17 in 10.0 mi SSE 6.9 mph - N/A   Clear
3:53 AM 26.1 °F 19.4 °F 21.0 °F 81% 30.15 in 10.0 mi WSW 5.8 mph - N/A   Mostly Cloudy
4:53 AM 26.1 °F 19.4 °F 21.9 °F 84% 30.14 in 10.0 mi West 5.8 mph - N/A   Overcast
5:53 AM 25.0 °F 17.1 °F 21.9 °F 88% 30.16 in 10.0 mi West 6.9 mph - N/A   Mostly Cloudy
6:53 AM 24.1 °F 16.0 °F 21.0 °F 88% 30.19 in 10.0 mi WSW 6.9 mph - N/A   Partly Cloudy
7:53 AM 27.0 °F 20.5 °F 23.0 °F 85% 30.19 in 10.0 mi West 5.8 mph - N/A   Mostly Cloudy
8:53 AM 33.1 °F 24.9 °F 26.1 °F 75% 30.18 in 10.0 mi SW 10.4 mph - N/A   Clear
9:53 AM 37.9 °F 29.6 °F 26.1 °F 62% 30.17 in 10.0 mi WNW 13.8 mph - N/A   Overcast
10:53 AM 41.0 °F 31.4 °F 25.0 °F 53% 30.15 in 10.0 mi West 21.9 mph 26.5 mph N/A   Mostly Cloudy
11:53 AM 42.1 °F 32.8 °F 25.0 °F 51% 30.16 in 10.0 mi WNW 21.9 mph - N/A   Overcast
12:53 PM 45.0 °F 38.9 °F 26.1 °F 48% 30.15 in 10.0 mi NW 12.7 mph - N/A   Mostly Cloudy
1:53 PM 46.9 °F - 25.0 °F 42% 30.10 in 10.0 mi NW 18.4 mph 28.8 mph N/A   Overcast
2:53 PM 48.0 °F - 26.1 °F 42% 30.09 in 10.0 mi WNW 20.7 mph - N/A   Scattered Clouds
3:53 PM 48.0 °F - 24.1 °F 39% 30.08 in 10.0 mi NW 20.7 mph 31.1 mph N/A   Partly Cloudy
4:53 PM 46.9 °F - 25.0 °F 42% 30.09 in 10.0 mi NW 16.1 mph 23.0 mph N/A   Clear
5:53 PM 44.1 °F 37.1 °F 26.1 °F 49% 30.12 in 10.0 mi West 15.0 mph - N/A   Clear
6:53 PM 39.0 °F 33.4 °F 26.1 °F 60% 30.17 in 10.0 mi West 8.1 mph - N/A   Mostly Cloudy
7:53 PM 39.9 °F 33.9 °F 27.0 °F 60% 30.15 in 10.0 mi WSW 9.2 mph - N/A   Mostly Cloudy
8:53 PM 39.9 °F 34.5 °F 27.0 °F 60% 30.12 in 10.0 mi West 8.1 mph - N/A   Overcast
9:53 PM 41.0 °F 35.2 °F 27.0 °F 57% 30.10 in 10.0 mi West 9.2 mph - N/A   Overcast
10:53 PM 42.1 °F 34.5 °F 25.0 °F 51% 30.07 in 10.0 mi West 15.0 mph - N/A   Overcast
11:53 PM 39.0 °F 30.3 °F 27.0 °F 62% 30.07 in 10.0 mi WSW 16.1 mph - N/A   Overcast